Time,TemperatureF,DewpointF,PressureIn,WindDirection,WindDirectionDegrees,WindSpeedMPH,WindSpeedGustMPH,Humidity,HourlyPrecipIn,Conditions,Clouds,dailyrainin,SoftwareType,DateUTC
2013-03-11 00:00:00,36.9,28.7,30.36,SSW,196,0.0,5.8,72,0.00,,SCT110,0.00,VWS V14.00,2013-03-11 04:00:00,
2013-03-11 00:01:00,36.9,28.7,30.36,South,190,3.6,3.6,72,0.00,,BKN016,0.00,VWS V14.00,2013-03-11 04:01:00,
2013-03-11 00:03:00,36.9,28.7,30.36,South,183,5.4,5.4,72,0.00,,BKN016,0.00,VWS V14.00,2013-03-11 04:03:00,
2013-03-11 00:10:00,36.9,28.7,30.36,SSW,195,2.7,6.3,72,0.00,,BKN016,0.00,VWS V14.00,2013-03-11 04:10:00,
2013-03-11 00:17:00,37.0,29.5,30.36,SSW,210,4.0,8.1,74,0.00,,BKN016,0.00,VWS V14.00,2013-03-11 04:17:00,
2013-03-11 00:24:00,37.0,29.5,30.36,SW,218,8.1,12.3,74,0.00,,BKN016,0.00,VWS V14.00,2013-03-11 04:24:00,
2013-03-11 00:30:00,36.9,29.0,30.36,SSE,167,2.7,12.3,73,0.00,,BKN016,0.00,VWS V14.00,2013-03-11 04:30:00,
2013-03-11 00:33:00,36.9,29.0,30.33,South,188,5.8,6.3,73,0.00,,OVC014,0.00,VWS V14.00,2013-03-11 04:33:00,
2013-03-11 00:40:00,36.5,28.4,30.33,SSE,151,0.0,6.3,72,0.00,,OVC014,0.00,VWS V14.00,2013-03-11 04:40:00,
2013-03-11 00:45:00,36.3,28.5,30.33,SSE,150,3.6,6.3,73,0.00,,OVC014,0.00,VWS V14.00,2013-03-11 04:45:00,
2013-03-11 00:52:00,36.1,28.3,30.33,South,180,5.8,5.8,73,0.00,,OVC014,0.00,VWS V14.00,2013-03-11 04:52:00,
2013-03-11 00:59:00,36.1,28.3,30.33,SSW,207,3.1,6.3,73,0.00,,OVC014,0.00,VWS V14.00,2013-03-11 04:59:00,
2013-03-11 01:07:00,36.0,28.2,30.33,South,179,5.8,5.8,73,0.00,,SCT014,0.00,VWS V14.00,2013-03-11 05:07:00,
2013-03-11 01:14:00,36.0,28.5,30.33,SW,227,4.0,8.3,74,0.00,,SCT014,0.00,VWS V14.00,2013-03-11 05:14:00,
2013-03-11 01:20:00,36.1,28.7,30.33,South,175,2.7,8.7,74,0.00,,BKN016,0.00,VWS V14.00,2013-03-11 05:20:00,
2013-03-11 01:26:00,36.1,28.7,30.33,SSE,165,0.0,8.7,74,0.00,,BKN016,0.00,VWS V14.00,2013-03-11 05:26:00,
2013-03-11 01:33:00,36.1,28.7,30.33,SE,143,3.6,8.3,74,0.00,,BKN016,0.00,VWS V14.00,2013-03-11 05:33:00,
2013-03-11 01:40:00,36.1,29.0,30.33,SW,226,8.1,9.6,75,0.00,,BKN016,0.00,VWS V14.00,2013-03-11 05:40:00,
2013-03-11 01:47:00,36.1,29.0,30.33,South,169,5.4,8.1,75,0.00,,OVC014,0.00,VWS V14.00,2013-03-11 05:47:00,
2013-03-11 01:54:00,36.1,29.0,30.36,SSW,203,4.9,6.3,75,0.00,,OVC014,0.00,VWS V14.00,2013-03-11 05:54:00,
2013-03-11 02:00:00,36.1,29.0,30.36,SSW,201,2.2,6.3,75,0.00,,OVC014,0.00,VWS V14.00,2013-03-11 06:00:00,
2013-03-11 02:06:00,36.0,28.8,30.36,South,190,0.0,4.0,75,0.00,,OVC014,0.00,VWS V14.00,2013-03-11 06:06:00,
2013-03-11 02:13:00,36.1,29.3,30.36,SW,225,0.0,4.0,76,0.00,,OVC014,0.00,VWS V14.00,2013-03-11 06:13:00,
2013-03-11 02:20:00,36.1,29.6,30.36,SSW,203,4.0,8.7,77,0.00,,OVC014,0.00,VWS V14.00,2013-03-11 06:20:00,
2013-03-11 02:25:00,36.3,29.5,30.36,SW,223,7.6,7.6,76,0.00,,OVC014,0.00,VWS V14.00,2013-03-11 06:25:00,
2013-03-11 02:34:00,36.3,29.2,30.36,SW,228,3.1,7.6,75,0.00,,OVC014,0.00,VWS V14.00,2013-03-11 06:34:00,
2013-03-11 02:40:00,36.3,28.8,30.36,SW,236,4.0,7.6,74,0.00,,OVC014,0.00,VWS V14.00,2013-03-11 06:40:00,
2013-03-11 02:46:00,36.3,28.8,30.36,SSW,207,0.0,6.3,74,0.00,,OVC014,0.00,VWS V14.00,2013-03-11 06:46:00,
2013-03-11 02:53:00,36.3,28.8,30.36,SSW,209,0.0,7.6,74,0.00,,OVC014,0.00,VWS V14.00,2013-03-11 06:53:00,
2013-03-11 03:00:00,36.3,29.2,30.36,SW,222,5.8,7.6,75,0.00,,OVC014,0.00,VWS V14.00,2013-03-11 07:00:00,
2013-03-11 03:05:00,36.3,29.2,30.33,SSW,196,3.6,10.5,75,0.00,,OVC012,0.00,VWS V14.00,2013-03-11 07:05:00,
2013-03-11 03:12:00,36.3,29.5,30.33,SSE,160,4.0,6.7,76,0.00,,OVC012,0.00,VWS V14.00,2013-03-11 07:12:00,
2013-03-11 03:19:00,36.3,29.5,30.33,SSE,149,3.6,7.6,76,0.00,,OVC012,0.00,VWS V14.00,2013-03-11 07:19:00,
2013-03-11 03:26:00,36.3,29.5,30.33,SSW,203,4.0,8.3,76,0.00,,OVC012,0.00,VWS V14.00,2013-03-11 07:26:00,
2013-03-11 03:33:00,36.3,29.5,30.30,South,173,5.4,11.0,76,0.00,,OVC012,0.00,VWS V14.00,2013-03-11 07:33:00,
2013-03-11 03:40:00,36.1,29.6,30.30,SSW,206,4.0,11.0,77,0.00,,OVC012,0.00,VWS V14.00,2013-03-11 07:40:00,
2013-03-11 03:45:00,36.1,29.6,30.30,SSW,207,4.9,6.3,77,0.00,,OVC012,0.00,VWS V14.00,2013-03-11 07:45:00,
2013-03-11 03:52:00,36.1,30.0,30.30,SSW,210,3.1,7.6,78,0.00,,OVC012,0.00,VWS V14.00,2013-03-11 07:52:00,
2013-03-11 03:59:00,36.1,30.0,30.30,South,181,5.8,8.7,78,0.00,,OVC012,0.00,VWS V14.00,2013-03-11 07:59:00,
2013-03-11 04:06:00,36.1,30.3,30.30,South,175,0.0,6.3,79,0.00,,OVC012,0.00,VWS V14.00,2013-03-11 08:06:00,
2013-03-11 04:13:00,36.1,30.3,30.30,SSW,192,2.7,5.8,79,0.00,,OVC012,0.00,VWS V14.00,2013-03-11 08:13:00,
2013-03-11 04:20:00,36.3,30.4,30.30,SSW,205,5.4,8.1,79,0.00,,OVC012,0.00,VWS V14.00,2013-03-11 08:20:00,
2013-03-11 04:25:00,36.1,30.3,30.30,SSW,201,5.8,8.7,79,0.00,,OVC012,0.00,VWS V14.00,2013-03-11 08:25:00,
2013-03-11 04:32:00,36.3,30.8,30.30,South,169,4.0,9.6,80,0.00,,OVC012,0.00,VWS V14.00,2013-03-11 08:32:00,
2013-03-11 04:39:00,36.3,30.8,30.33,South,183,3.6,9.6,80,0.00,,OVC012,0.00,VWS V14.00,2013-03-11 08:39:00,
2013-03-11 04:46:00,36.3,30.8,30.33,SW,231,5.4,10.5,80,0.00,,OVC012,0.00,VWS V14.00,2013-03-11 08:46:00,
2013-03-11 04:53:00,36.3,30.8,30.30,SSW,212,5.4,8.7,80,0.00,,OVC012,0.00,VWS V14.00,2013-03-11 08:53:00,
2013-03-11 05:00:00,36.3,30.8,30.30,South,177,3.1,8.7,80,0.00,,OVC012,0.00,VWS V14.00,2013-03-11 09:00:00,
2013-03-11 05:05:00,36.3,30.8,30.30,South,179,2.7,8.1,80,0.00,,OVC010,0.00,VWS V14.00,2013-03-11 09:05:00,
2013-03-11 05:12:00,36.3,30.8,30.30,SSW,213,5.4,6.3,80,0.00,,OVC010,0.00,VWS V14.00,2013-03-11 09:12:00,
2013-03-11 05:19:00,36.3,30.8,30.30,South,183,4.0,8.1,80,0.00,,OVC010,0.00,VWS V14.00,2013-03-11 09:19:00,
2013-03-11 05:26:00,36.3,30.8,30.30,SE,138,4.0,9.2,80,0.00,,OVC010,0.00,VWS V14.00,2013-03-11 09:26:00,
2013-03-11 05:33:00,36.1,30.3,30.30,SW,226,0.0,9.6,79,0.00,,OVC010,0.00,VWS V14.00,2013-03-11 09:33:00,
2013-03-11 05:40:00,36.1,30.3,30.30,SSE,160,0.0,9.6,79,0.00,,OVC010,0.00,VWS V14.00,2013-03-11 09:40:00,
2013-03-11 05:45:00,36.1,30.0,30.30,South,189,3.1,8.3,78,0.00,,OVC010,0.00,VWS V14.00,2013-03-11 09:45:00,
2013-03-11 05:52:00,36.0,29.8,30.27,SSW,210,4.0,8.3,78,0.00,,OVC010,0.00,VWS V14.00,2013-03-11 09:52:00,
2013-03-11 05:59:00,36.0,29.8,30.27,East,91,6.3,8.3,78,0.00,,OVC010,0.00,VWS V14.00,2013-03-11 09:59:00,
2013-03-11 06:06:00,35.8,29.9,30.27,South,169,5.4,8.7,79,0.00,,OVC010,0.00,VWS V14.00,2013-03-11 10:06:00,
2013-03-11 06:13:00,35.8,29.9,30.27,SE,144,4.9,9.2,79,0.00,,OVC010,0.00,VWS V14.00,2013-03-11 10:13:00,
2013-03-11 06:20:00,36.0,30.4,30.27,SSW,196,4.0,9.2,80,0.00,,OVC010,0.00,VWS V14.00,2013-03-11 10:20:00,
2013-03-11 06:25:00,36.0,30.4,30.27,SW,226,4.0,10.1,80,0.00,,OVC010,0.00,VWS V14.00,2013-03-11 10:25:00,
2013-03-11 06:32:00,36.1,30.6,30.30,SSE,154,5.4,8.3,80,0.00,,OVC010,0.00,VWS V14.00,2013-03-11 10:32:00,
2013-03-11 06:39:00,36.1,30.6,30.30,SSW,210,3.1,8.7,80,0.00,,OVC010,0.00,VWS V14.00,2013-03-11 10:39:00,
2013-03-11 06:46:00,36.1,30.6,30.30,SW,227,5.4,9.6,80,0.00,,OVC010,0.00,VWS V14.00,2013-03-11 10:46:00,
2013-03-11 06:53:00,36.3,30.4,30.30,SSW,202,4.5,12.8,79,0.00,,OVC010,0.00,VWS V14.00,2013-03-11 10:53:00,
2013-03-11 07:00:00,36.3,30.4,30.30,WSW,248,10.5,12.8,79,0.00,,OVC010,0.00,VWS V14.00,2013-03-11 11:00:00,
2013-03-11 07:05:00,36.3,30.1,30.30,South,179,2.7,10.5,78,0.00,,OVC010,0.00,VWS V14.00,2013-03-11 11:05:00,
2013-03-11 07:12:00,36.3,30.1,30.30,South,182,3.1,10.1,78,0.00,,OVC010,0.00,VWS V14.00,2013-03-11 11:12:00,
2013-03-11 07:19:00,36.3,29.8,30.30,SW,217,9.6,10.1,77,0.00,,OVC010,0.00,VWS V14.00,2013-03-11 11:19:00,
2013-03-11 07:27:00,36.5,30.0,30.30,SSW,198,4.0,7.6,77,0.00,,OVC010,0.00,VWS V14.00,2013-03-11 11:27:00,
2013-03-11 07:34:00,36.7,29.8,30.30,South,179,2.2,9.6,76,0.00,,OVC010,0.00,VWS V14.00,2013-03-11 11:34:00,
2013-03-11 07:40:00,36.7,29.5,30.30,South,170,3.6,9.6,75,0.00,,OVC010,0.00,VWS V14.00,2013-03-11 11:40:00,
2013-03-11 07:46:00,36.9,29.4,30.30,SSW,192,6.7,7.6,74,0.00,,OVC010,0.00,VWS V14.00,2013-03-11 11:46:00,
2013-03-11 07:53:00,36.9,29.4,30.30,SSW,201,5.4,12.3,74,0.00,,OVC010,0.00,VWS V14.00,2013-03-11 11:53:00,
2013-03-11 08:00:00,36.7,28.9,30.30,SE,126,0.0,12.3,73,0.00,,OVC010,0.00,VWS V14.00,2013-03-11 12:00:00,
2013-03-11 08:07:00,36.7,28.9,30.30,West,264,2.7,9.6,73,0.00,,BKN010,0.00,VWS V14.00,2013-03-11 12:07:00,
2013-03-11 08:14:00,36.9,29.0,30.30,SW,222,5.8,8.3,73,0.00,,BKN010,0.00,VWS V14.00,2013-03-11 12:14:00,
2013-03-11 08:20:00,36.9,28.7,30.30,South,182,2.7,8.3,72,0.00,,BKN010,0.00,VWS V14.00,2013-03-11 12:20:00,
2013-03-11 08:25:00,37.0,28.9,30.30,SW,220,6.3,8.3,72,0.00,,SCT010,0.00,VWS V14.00,2013-03-11 12:25:00,
2013-03-11 08:33:00,37.6,29.0,30.30,South,190,4.0,10.1,71,0.00,,SCT010,0.00,VWS V14.00,2013-03-11 12:33:00,
2013-03-11 08:40:00,37.9,29.0,30.30,SW,220,8.7,15.0,70,0.00,,SCT010,0.00,VWS V14.00,2013-03-11 12:40:00,
2013-03-11 08:47:00,38.1,28.5,30.30,SSE,157,3.6,11.9,68,0.00,,BKN012,0.00,VWS V14.00,2013-03-11 12:47:00,
2013-03-11 08:54:00,38.3,28.7,30.30,SSW,211,5.4,8.7,68,0.00,,BKN012,0.00,VWS V14.00,2013-03-11 12:54:00,
2013-03-11 09:00:00,38.3,28.0,30.30,West,260,4.9,11.0,66,0.00,,BKN012,0.00,VWS V14.00,2013-03-11 13:00:00,
2013-03-11 09:06:00,38.5,28.1,30.30,SW,232,5.4,10.1,66,0.00,,BKN012,0.00,VWS V14.00,2013-03-11 13:06:00,
2013-03-11 09:13:00,38.7,28.3,30.30,South,189,6.3,11.0,66,0.00,,SCT012,0.00,VWS V14.00,2013-03-11 13:13:00,
2013-03-11 09:20:00,38.8,28.5,30.30,SSE,168,4.0,11.0,66,0.00,,SCT012,0.00,VWS V14.00,2013-03-11 13:20:00,
2013-03-11 09:27:00,39.2,28.1,30.30,SE,140,3.6,8.1,64,0.00,,SCT012,0.00,VWS V14.00,2013-03-11 13:27:00,
2013-03-11 09:34:00,39.7,27.8,30.27,SSE,168,3.6,5.8,62,0.00,,SCT012,0.00,VWS V14.00,2013-03-11 13:34:00,
2013-03-11 09:40:00,41.0,27.4,30.27,SW,221,5.8,11.4,58,0.00,,SCT012,0.00,VWS V14.00,2013-03-11 13:40:00,
2013-03-11 09:48:00,42.8,27.3,30.27,WSW,240,6.3,9.6,54,0.00,,SCT012,0.00,VWS V14.00,2013-03-11 13:48:00,
2013-03-11 09:55:00,41.5,27.5,30.27,SW,222,6.3,11.0,57,0.00,,SCT012,0.00,VWS V14.00,2013-03-11 13:55:00,
2013-03-11 10:02:00,45.9,29.7,30.27,SSW,210,7.6,8.3,53,0.00,,FEW014,0.00,VWS V14.00,2013-03-11 14:02:00,
2013-03-11 10:09:00,47.8,28.6,30.27,SSE,159,4.5,12.3,47,0.00,,FEW014,0.00,VWS V14.00,2013-03-11 14:09:00,
2013-03-11 10:16:00,46.2,28.1,30.27,South,176,8.1,15.9,49,0.00,,FEW014,0.00,VWS V14.00,2013-03-11 14:16:00,
2013-03-11 10:23:00,46.4,28.8,30.27,SSW,196,3.1,7.2,50,0.00,,FEW014,0.00,VWS V14.00,2013-03-11 14:23:00,
2013-03-11 10:30:00,45.1,27.1,30.27,SSE,168,4.9,10.1,49,0.00,,FEW014,0.00,VWS V14.00,2013-03-11 14:30:00,
2013-03-11 10:35:00,45.9,28.8,30.27,SW,226,9.6,10.1,51,0.00,,FEW014,0.00,VWS V14.00,2013-03-11 14:35:00,
2013-03-11 10:42:00,45.1,29.0,30.27,SW,219,9.6,10.1,53,0.00,,FEW014,0.00,VWS V14.00,2013-03-11 14:42:00,
2013-03-11 10:50:00,43.2,28.1,30.27,SW,216,8.7,12.8,55,0.00,,FEW014,0.00,VWS V14.00,2013-03-11 14:50:00,
2013-03-11 10:57:00,44.6,29.5,30.27,South,189,5.4,15.4,55,0.00,,FEW014,0.00,VWS V14.00,2013-03-11 14:57:00,
2013-03-11 11:04:00,45.7,28.6,30.27,SSE,152,5.4,8.7,51,0.00,,CLR,0.00,VWS V14.00,2013-03-11 15:04:00,
2013-03-11 11:10:00,47.3,28.6,30.27,SSW,196,10.5,11.4,48,0.00,,CLR,0.00,VWS V14.00,2013-03-11 15:10:00,
2013-03-11 11:16:00,46.8,28.1,30.27,South,186,8.7,11.0,48,0.00,,CLR,0.00,VWS V14.00,2013-03-11 15:16:00,
2013-03-11 11:23:00,47.1,29.0,30.27,SW,214,8.1,12.3,49,0.00,,CLR,0.00,VWS V14.00,2013-03-11 15:23:00,
2013-03-11 11:30:00,45.9,28.3,30.27,SW,216,7.6,13.2,50,0.00,,CLR,0.00,VWS V14.00,2013-03-11 15:30:00,
2013-03-11 11:37:00,45.5,28.9,30.27,SSW,210,9.2,12.8,52,0.00,,CLR,0.00,VWS V14.00,2013-03-11 15:37:00,
2013-03-11 11:44:00,45.1,28.1,30.27,South,185,5.4,8.3,51,0.00,,CLR,0.00,VWS V14.00,2013-03-11 15:44:00,
2013-03-11 11:50:00,45.3,28.3,30.30,SE,129,5.4,10.1,51,0.00,,CLR,0.00,VWS V14.00,2013-03-11 15:50:00,
2013-03-11 11:58:00,45.0,28.9,30.30,SW,224,8.7,12.8,53,0.00,,CLR,0.00,VWS V14.00,2013-03-11 15:58:00,
2013-03-11 12:05:00,46.0,28.9,30.27,SSW,211,8.7,10.5,51,0.00,,CLR,0.00,VWS V14.00,2013-03-11 16:05:00,
2013-03-11 12:12:00,46.2,29.1,30.27,SW,228,9.6,12.3,51,0.00,,CLR,0.00,VWS V14.00,2013-03-11 16:12:00,
2013-03-11 12:19:00,46.8,28.6,30.27,SW,224,10.5,13.2,49,0.00,,CLR,0.00,VWS V14.00,2013-03-11 16:19:00,
2013-03-11 12:26:00,47.1,28.5,30.27,SSW,203,2.2,8.7,48,0.00,,CLR,0.00,VWS V14.00,2013-03-11 16:26:00,
2013-03-11 12:33:00,46.8,29.1,30.27,South,186,5.8,10.5,50,0.00,,CLR,0.00,VWS V14.00,2013-03-11 16:33:00,
2013-03-11 12:40:00,46.9,28.8,30.27,SSW,197,5.8,10.5,49,0.00,,CLR,0.00,VWS V14.00,2013-03-11 16:40:00,
2013-03-11 12:45:00,47.3,28.6,30.27,SW,221,8.3,8.3,48,0.00,,CLR,0.00,VWS V14.00,2013-03-11 16:45:00,
2013-03-11 12:52:00,47.7,28.4,30.27,SSW,207,6.3,8.1,47,0.00,,CLR,0.00,VWS V14.00,2013-03-11 16:52:00,
2013-03-11 12:59:00,48.4,28.6,30.27,SSW,192,8.3,10.1,46,0.00,,CLR,0.00,VWS V14.00,2013-03-11 16:59:00,
2013-03-11 13:06:00,48.2,28.4,30.27,SSW,210,10.5,13.2,46,0.00,,CLR,0.00,VWS V14.00,2013-03-11 17:06:00,
2013-03-11 13:13:00,47.8,29.1,30.27,South,184,8.3,11.0,48,0.00,,CLR,0.00,VWS V14.00,2013-03-11 17:13:00,
2013-03-11 13:20:00,48.0,28.8,30.27,SE,129,8.3,12.3,47,0.00,,CLR,0.00,VWS V14.00,2013-03-11 17:20:00,
2013-03-11 13:25:00,48.4,29.1,30.27,SSW,210,6.3,10.5,47,0.00,,CLR,0.00,VWS V14.00,2013-03-11 17:25:00,
2013-03-11 13:32:00,48.4,28.6,30.27,SSW,206,10.5,12.8,46,0.00,,CLR,0.00,VWS V14.00,2013-03-11 17:32:00,
2013-03-11 13:39:00,48.4,28.6,30.27,SSE,153,8.1,14.1,46,0.00,,CLR,0.00,VWS V14.00,2013-03-11 17:39:00,
2013-03-11 13:46:00,48.0,28.2,30.27,SW,235,3.1,12.3,46,0.00,,CLR,0.00,VWS V14.00,2013-03-11 17:46:00,
2013-03-11 13:54:00,48.7,29.4,30.27,SW,232,3.1,12.8,47,0.00,,CLR,0.00,VWS V14.00,2013-03-11 17:54:00,
2013-03-11 14:00:00,48.6,29.3,30.27,SSW,194,7.6,12.8,47,0.00,,CLR,0.00,VWS V14.00,2013-03-11 18:00:00,
2013-03-11 14:06:00,48.4,28.6,30.24,SW,222,4.9,8.3,46,0.00,,CLR,0.00,VWS V14.00,2013-03-11 18:06:00,
2013-03-11 14:13:00,48.4,30.1,30.24,SSW,204,8.3,8.3,49,0.00,,CLR,0.00,VWS V14.00,2013-03-11 18:13:00,
2013-03-11 14:20:00,48.4,29.1,30.24,SW,221,9.2,9.2,47,0.00,,CLR,0.00,VWS V14.00,2013-03-11 18:20:00,
2013-03-11 14:27:00,48.6,29.3,30.24,SSW,209,2.7,9.2,47,0.00,,CLR,0.00,VWS V14.00,2013-03-11 18:27:00,
2013-03-11 14:34:00,49.1,29.2,30.21,SW,226,3.1,6.7,46,0.00,,CLR,0.00,VWS V14.00,2013-03-11 18:34:00,
2013-03-11 14:40:00,49.6,29.7,30.21,SW,216,8.7,8.7,46,0.00,,CLR,0.00,VWS V14.00,2013-03-11 18:40:00,
2013-03-11 14:46:00,50.4,29.8,30.21,South,181,5.8,11.0,45,0.00,,CLR,0.00,VWS V14.00,2013-03-11 18:46:00,
2013-03-11 14:53:00,51.3,29.5,30.21,SW,223,4.0,8.1,43,0.00,,CLR,0.00,VWS V14.00,2013-03-11 18:53:00,
2013-03-11 15:00:00,50.9,29.2,30.21,SSW,211,8.1,8.1,43,0.00,,CLR,0.00,VWS V14.00,2013-03-11 19:00:00,
2013-03-11 15:07:00,50.9,29.8,30.21,ESE,110,5.4,11.0,44,0.00,,CLR,0.00,VWS V14.00,2013-03-11 19:07:00,
2013-03-11 15:14:00,50.9,29.2,30.21,WSW,237,7.6,12.8,43,0.00,,CLR,0.00,VWS V14.00,2013-03-11 19:14:00,
2013-03-11 15:20:00,50.7,29.6,30.21,SW,221,5.4,12.8,44,0.00,,CLR,0.00,VWS V14.00,2013-03-11 19:20:00,
2013-03-11 15:26:00,50.0,29.5,30.21,South,191,5.8,12.8,45,0.00,,CLR,0.00,VWS V14.00,2013-03-11 19:26:00,
2013-03-11 15:33:00,49.8,30.4,30.21,SW,214,4.9,11.9,47,0.00,,CLR,0.00,VWS V14.00,2013-03-11 19:33:00,
2013-03-11 15:40:00,50.5,31.1,30.21,SSW,194,8.1,11.9,47,0.00,,CLR,0.00,VWS V14.00,2013-03-11 19:40:00,
2013-03-11 15:47:00,50.7,31.2,30.21,ESE,117,3.6,8.1,47,0.00,,CLR,0.00,VWS V14.00,2013-03-11 19:47:00,
2013-03-11 15:54:00,50.5,30.0,30.21,South,185,8.3,8.3,45,0.00,,CLR,0.00,VWS V14.00,2013-03-11 19:54:00,
2013-03-11 16:00:00,50.5,31.6,30.21,South,182,7.6,10.1,48,0.00,,CLR,0.00,VWS V14.00,2013-03-11 20:00:00,
2013-03-11 16:08:00,51.6,31.5,30.21,SW,214,4.0,7.6,46,0.00,,BKN250,0.00,VWS V14.00,2013-03-11 20:08:00,
2013-03-11 16:15:00,51.1,31.0,30.21,SSW,210,3.1,8.7,46,0.00,,BKN250,0.00,VWS V14.00,2013-03-11 20:15:00,
2013-03-11 16:22:00,50.7,30.2,30.21,SSW,196,3.6,5.4,45,0.00,,BKN250,0.00,VWS V14.00,2013-03-11 20:22:00,
2013-03-11 16:29:00,50.5,31.1,30.21,SSW,209,3.1,7.6,47,0.00,,BKN250,0.00,VWS V14.00,2013-03-11 20:29:00,
2013-03-11 16:36:00,50.4,30.4,30.21,South,189,2.2,6.3,46,0.00,,BKN250,0.00,VWS V14.00,2013-03-11 20:36:00,
2013-03-11 16:44:00,50.0,30.6,30.21,SSE,159,5.8,6.3,47,0.00,,BKN250,0.00,VWS V14.00,2013-03-11 20:44:00,
2013-03-11 16:50:00,49.6,30.8,30.21,South,176,4.0,8.7,48,0.00,,BKN250,0.00,VWS V14.00,2013-03-11 20:50:00,
2013-03-11 16:56:00,49.5,30.6,30.21,SSW,201,3.6,8.7,48,0.00,,BKN250,0.00,VWS V14.00,2013-03-11 20:56:00,
2013-03-11 17:03:00,49.1,30.8,30.18,SW,226,5.4,8.3,49,0.00,,BKN250,0.00,VWS V14.00,2013-03-11 21:03:00,
2013-03-11 17:10:00,48.7,31.4,30.18,SW,218,2.7,8.3,51,0.00,,BKN250,0.00,VWS V14.00,2013-03-11 21:10:00,
2013-03-11 17:17:00,48.6,31.8,30.18,SW,224,5.8,7.6,52,0.00,,BKN250,0.00,VWS V14.00,2013-03-11 21:17:00,
2013-03-11 17:24:00,48.2,31.4,30.18,SW,225,8.1,8.1,52,0.00,,BKN250,0.00,VWS V14.00,2013-03-11 21:24:00,
2013-03-11 17:30:00,48.0,31.7,30.18,South,191,3.1,8.1,53,0.00,,BKN250,0.00,VWS V14.00,2013-03-11 21:30:00,
2013-03-11 17:36:00,47.7,31.4,30.18,South,175,0.0,5.8,53,0.00,,BKN250,0.00,VWS V14.00,2013-03-11 21:36:00,
2013-03-11 17:43:00,47.3,31.5,30.18,SSW,197,0.0,4.0,54,0.00,,BKN250,0.00,VWS V14.00,2013-03-11 21:43:00,
2013-03-11 17:50:00,47.3,31.0,30.18,SW,235,4.0,4.0,53,0.00,,BKN250,0.00,VWS V14.00,2013-03-11 21:50:00,
2013-03-11 17:57:00,47.1,30.9,30.18,SSW,195,0.0,5.8,53,0.00,,BKN250,0.00,VWS V14.00,2013-03-11 21:57:00,
2013-03-11 18:04:00,46.9,30.7,30.18,SSW,202,4.0,10.1,53,0.00,,BKN250,0.00,VWS V14.00,2013-03-11 22:04:00,
2013-03-11 18:10:00,46.8,30.1,30.18,South,189,5.4,11.0,52,0.00,,BKN250,0.00,VWS V14.00,2013-03-11 22:10:00,
2013-03-11 18:16:00,46.6,29.9,30.18,SSW,196,5.8,5.8,52,0.00,,BKN250,0.00,VWS V14.00,2013-03-11 22:16:00,
2013-03-11 18:23:00,46.4,29.8,30.18,South,175,0.0,6.3,52,0.00,,BKN250,0.00,VWS V14.00,2013-03-11 22:23:00,
2013-03-11 18:30:00,45.9,30.2,30.18,South,191,2.7,8.7,54,0.00,,BKN250,0.00,VWS V14.00,2013-03-11 22:30:00,
2013-03-11 18:37:00,45.3,30.6,30.18,South,176,3.6,7.2,56,0.00,,BKN250,0.00,VWS V14.00,2013-03-11 22:37:00,
2013-03-11 18:44:00,45.0,30.2,30.18,SSW,206,0.0,6.3,56,0.00,,BKN250,0.00,VWS V14.00,2013-03-11 22:44:00,
2013-03-11 18:50:00,44.8,30.5,30.18,South,181,2.2,6.3,57,0.00,,BKN250,0.00,VWS V14.00,2013-03-11 22:50:00,
2013-03-11 18:56:00,44.4,31.0,30.18,South,180,3.1,8.3,59,0.00,,BKN250,0.00,VWS V14.00,2013-03-11 22:56:00,
2013-03-11 19:05:00,44.1,31.1,30.21,SW,222,2.7,4.5,60,0.00,,BKN250,0.00,VWS V14.00,2013-03-11 23:05:00,
2013-03-11 19:12:00,43.7,31.5,30.21,SW,233,4.0,6.3,62,0.00,,BKN250,0.00,VWS V14.00,2013-03-11 23:12:00,
2013-03-11 19:19:00,43.7,33.1,30.21,ESE,120,2.2,8.1,66,0.00,,BKN250,0.00,VWS V14.00,2013-03-11 23:19:00,
2013-03-11 19:26:00,43.5,33.3,30.21,SW,228,2.7,6.3,67,0.00,,BKN250,0.00,VWS V14.00,2013-03-11 23:26:00,
2013-03-11 19:33:00,43.5,33.7,30.21,SSE,166,3.1,5.8,68,0.00,,BKN250,0.00,VWS V14.00,2013-03-11 23:33:00,
2013-03-11 19:40:00,43.7,34.2,30.21,South,178,5.8,7.2,69,0.00,,BKN250,0.00,VWS V14.00,2013-03-11 23:40:00,
2013-03-11 19:45:00,43.7,33.8,30.21,SSE,162,2.7,6.3,68,0.00,,BKN250,0.00,VWS V14.00,2013-03-11 23:45:00,
2013-03-11 19:55:00,43.7,34.6,30.21,South,182,6.3,8.3,70,0.00,,BKN250,0.00,VWS V14.00,2013-03-11 23:55:00,
2013-03-11 20:02:00,43.7,34.2,30.21,SSW,195,2.7,4.0,69,0.00,,CLR,0.00,VWS V14.00,2013-03-12 00:02:00,
2013-03-11 20:09:00,43.5,34.4,30.18,South,175,5.8,6.3,70,0.00,,CLR,0.00,VWS V14.00,2013-03-12 00:09:00,
2013-03-11 20:16:00,43.5,34.8,30.18,SW,224,3.6,6.3,71,0.00,,CLR,0.00,VWS V14.00,2013-03-12 00:16:00,
2013-03-11 20:23:00,43.5,35.1,30.21,SSE,154,0.0,8.3,72,0.00,,CLR,0.00,VWS V14.00,2013-03-12 00:23:00,
2013-03-11 20:30:00,43.3,35.3,30.21,SW,234,3.1,8.3,73,0.00,,CLR,0.00,VWS V14.00,2013-03-12 00:30:00,
2013-03-11 20:35:00,43.2,35.5,30.21,SSW,202,3.6,7.6,74,0.00,,CLR,0.00,VWS V14.00,2013-03-12 00:35:00,
2013-03-11 20:42:00,43.0,35.6,30.21,SW,220,3.6,6.3,75,0.00,,CLR,0.00,VWS V14.00,2013-03-12 00:42:00,
2013-03-11 20:49:00,43.0,36.3,30.21,South,169,3.6,7.6,77,0.00,,CLR,0.00,VWS V14.00,2013-03-12 00:49:00,
2013-03-11 20:56:00,43.0,36.6,30.21,SW,214,3.1,5.8,78,0.00,,CLR,0.00,VWS V14.00,2013-03-12 00:56:00,
2013-03-11 21:03:00,43.0,36.6,30.18,SSW,203,5.4,5.4,78,0.00,,CLR,0.00,VWS V14.00,2013-03-12 01:03:00,
2013-03-11 21:10:00,42.8,36.4,30.18,SSW,202,3.1,8.1,78,0.00,,CLR,0.00,VWS V14.00,2013-03-12 01:10:00,
2013-03-11 21:15:00,42.6,36.6,30.18,SSW,198,2.7,8.1,79,0.00,,CLR,0.00,VWS V14.00,2013-03-12 01:15:00,
2013-03-11 21:22:00,42.3,36.2,30.18,SW,214,5.8,5.8,79,0.00,,CLR,0.00,VWS V14.00,2013-03-12 01:22:00,
2013-03-11 21:29:00,42.3,36.9,30.18,SE,145,2.7,7.2,81,0.00,,CLR,0.00,VWS V14.00,2013-03-12 01:29:00,
2013-03-11 21:36:00,42.3,36.9,30.18,SW,216,4.5,5.8,81,0.00,,CLR,0.00,VWS V14.00,2013-03-12 01:36:00,
2013-03-11 21:43:00,42.1,36.7,30.18,South,170,0.0,5.4,81,0.00,,CLR,0.00,VWS V14.00,2013-03-12 01:43:00,
2013-03-11 21:50:00,41.9,36.5,30.18,SE,129,0.0,7.6,81,0.00,,CLR,0.00,VWS V14.00,2013-03-12 01:50:00,
2013-03-11 21:55:00,41.7,36.6,30.18,South,180,0.0,5.8,82,0.00,,CLR,0.00,VWS V14.00,2013-03-12 01:55:00,
2013-03-11 22:02:00,41.7,37.0,30.18,SW,222,3.1,3.6,83,0.00,,BKN018,0.00,VWS V14.00,2013-03-12 02:02:00,
2013-03-11 22:09:00,41.7,37.2,30.18,SSW,209,3.1,8.1,84,0.00,,BKN018,0.00,VWS V14.00,2013-03-12 02:09:00,
2013-03-11 22:16:00,41.7,37.2,30.18,ESE,120,2.2,6.3,84,0.00,,BKN018,0.00,VWS V14.00,2013-03-12 02:16:00,
2013-03-11 22:23:00,41.7,37.5,30.18,South,185,4.9,7.6,85,0.00,,BKN018,0.00,VWS V14.00,2013-03-12 02:23:00,
2013-03-11 22:30:00,41.9,38.0,30.18,SSW,200,3.6,7.6,86,0.00,,BKN018,0.00,VWS V14.00,2013-03-12 02:30:00,
2013-03-11 22:35:00,41.9,38.0,30.18,SE,144,0.0,10.1,86,0.00,,BKN018,0.00,VWS V14.00,2013-03-12 02:35:00,
2013-03-11 22:42:00,41.7,37.8,30.18,SSE,155,3.6,8.1,86,0.00,,BKN018,0.00,VWS V14.00,2013-03-12 02:42:00,
2013-03-11 22:49:00,41.7,37.8,30.18,SSW,205,3.6,8.1,86,0.00,,BKN018,0.00,VWS V14.00,2013-03-12 02:49:00,
2013-03-11 22:56:00,41.7,37.8,30.18,SSW,201,3.1,5.4,86,0.00,,BKN018,0.00,VWS V14.00,2013-03-12 02:56:00,
2013-03-11 23:03:00,41.7,38.1,30.18,SSW,193,4.5,5.4,87,0.00,,BKN018,0.00,VWS V14.00,2013-03-12 03:03:00,
2013-03-11 23:10:00,41.7,38.1,30.18,WSW,238,5.4,7.6,87,0.00,,BKN018,0.00,VWS V14.00,2013-03-12 03:10:00,
2013-03-11 23:15:00,41.5,38.0,30.18,SSW,195,3.1,7.6,87,0.00,,BKN018,0.00,VWS V14.00,2013-03-12 03:15:00,
2013-03-11 23:22:00,41.5,38.0,30.18,South,185,0.0,5.8,87,0.00,,SCT018,0.00,VWS V14.00,2013-03-12 03:22:00,
2013-03-11 23:29:00,41.7,38.4,30.18,SSE,152,3.6,6.3,88,0.00,,SCT018,0.00,VWS V14.00,2013-03-12 03:29:00,
2013-03-11 23:36:00,41.7,38.4,30.18,NE,51,3.1,6.3,88,0.00,,SCT018,0.00,VWS V14.00,2013-03-12 03:36:00,
2013-03-11 23:43:00,41.7,38.7,30.18,South,185,4.0,7.6,89,0.00,,SCT018,0.00,VWS V14.00,2013-03-12 03:43:00,
2013-03-11 23:50:00,41.5,38.3,30.18,SW,222,3.6,7.6,88,0.00,,BKN020,0.00,VWS V14.00,2013-03-12 03:50:00,
2013-03-11 23:55:00,41.5,38.5,30.18,SSW,209,0.0,5.8,89,0.00,,BKN020,0.00,VWS V14.00,2013-03-12 03:55:00,